CW5439 Weather Reports


Display with metric or nautical units.
time (UTC)temp
F
wind
direction
speed
MPH
gust
MPH
rain 1hr
in
rain 24hr
in
rain mn
in
humidity
%
barometer
mb
20260509012705 47 66 5.0 10.0 0.00 0.00 0.00 83 1020.3
20260509012205 47 63 4.0 9.0 0.00 0.00 0.00 83 1020.3
20260509011705 47 55 5.0 9.0 0.00 0.00 0.00 83 1020.3
20260509011205 47 31 4.0 9.0 0.00 0.00 0.00 83 1020.3
20260509010703 47 55 4.0 11.0 0.00 0.00 0.00 83 1020.3
20260509005705 47 28 6.0 11.0 0.00 0.00 0.00 83 1020.2
20260509005206 47 46 5.0 8.0 0.00 0.00 0.00 84 1020.1
20260509004205 47 42 4.0 8.0 0.00 0.00 0.00 83 1020.2
20260509003705 47 30 3.0 5.0 0.00 0.00 0.00 83 1020.2
20260509003207 47 5 3.0 7.0 0.00 0.00 0.00 83 1020.1
20260509002706 47 29 4.0 7.0 0.00 0.00 0.00 83 1020.1
20260509002206 47 45 4.0 9.0 0.00 0.00 0.00 82 1020.0
20260509001705 48 51 4.0 9.0 0.00 0.00 0.00 82 1019.9
20260509001205 48 53 4.0 9.0 0.00 0.00 0.00 82 1019.9
20260509000704 48 67 4.0 8.0 0.00 0.00 0.00 82 1019.8
20260509000205 48 67 4.0 9.0 0.00 0.00 0.00 81 1019.8
20260508235706 48 51 4.0 9.0 0.00 0.00 0.00 81 1019.7
20260508234205 48 63 5.0 10.0 0.00 0.00 0.00 80 1019.8
20260508233705 49 71 5.0 10.0 0.00 0.00 0.00 80 1019.8
20260508233206 49 52 5.0 10.0 0.00 0.00 0.00 80 1019.7
20260508232707 49 43 4.0 9.0 0.00 0.00 0.00 80 1019.7
20260508231705 49 13 5.0 11.0 0.00 0.00 0.00 79 1019.6
20260508231205 49 39 6.0 11.0 0.00 0.00 0.00 79 1019.6
20260508230705 49 76 5.0 8.0 0.00 0.00 0.00 79 1019.6
20260508230205 49 45 4.0 11.0 0.00 0.00 0.00 78 1019.5
20260508225705 49 42 5.0 11.0 0.00 0.00 0.00 78 1019.5
20260508225205 49 29 5.0 12.0 0.00 0.00 0.00 77 1019.4
20260508224205 48 57 3.0 12.0 0.00 0.00 0.00 76 1019.3
20260508223705 47 351 2.0 4.0 0.00 0.00 0.00 75 1019.2
20260508223205 47 278 2.0 4.0 0.00 0.00 0.00 74 1019.0
20260508222704 47 273 2.0 3.0 0.00 0.00 0.00 74 1019.0
20260508222206 47 279 2.0 3.0 0.00 0.00 0.00 74 1019.0
20260508221705 47 275 1.0 3.0 0.00 0.00 0.00 74 1018.9
20260508221205 47 268 1.0 2.0 0.00 0.00 0.00 74 1018.9
20260508220704 47 256 1.0 2.0 0.00 0.00 0.00 73 1018.8
20260508220205 47 251 1.0 2.0 0.00 0.00 0.00 73 1018.8
20260508215705 47 225 1.0 3.0 0.00 0.00 0.00 73 1018.7
20260508215206 47 225 1.0 3.0 0.00 0.00 0.00 73 1018.7
20260508214705 47 225 1.0 4.0 0.00 0.00 0.00 72 1018.6
20260508214205 48 230 2.0 4.0 0.00 0.00 0.00 72 1018.5
20260508213704 48 230 2.0 4.0 0.00 0.00 0.00 72 1018.5
20260508212705 48 230 2.0 4.0 0.00 0.00 0.00 71 1018.3
20260508212206 48 234 2.0 4.0 0.00 0.00 0.00 71 1018.3
20260508211705 48 249 2.0 3.0 0.00 0.00 0.00 71 1018.2
20260508210706 49 248 2.0 4.0 0.00 0.00 0.00 70 1018.2
20260508210205 49 249 2.0 5.0 0.00 0.00 0.00 70 1018.2
20260508205706 49 241 2.0 5.0 0.00 0.00 0.00 69 1018.2
20260508204704 49 250 2.0 4.0 0.00 0.00 0.00 68 1018.1
20260508204234 50 234 2.0 4.0 0.00 0.00 0.00 68 1018.0
20260508203704 50 281 2.0 5.0 0.00 0.00 0.00 68 1018.0
20260508203205 50 254 2.0 7.0 0.00 0.00 0.00 67 1017.9
20260508202206 50 251 2.0 4.0 0.00 0.00 0.00 67 1017.8
20260508201705 50 248 2.0 4.0 0.00 0.00 0.00 67 1017.7
20260508201206 51 234 2.0 5.0 0.00 0.00 0.00 67 1017.7
20260508200704 51 216 2.0 5.0 0.00 0.00 0.00 67 1017.7
20260508200205 51 259 2.0 5.0 0.00 0.00 0.00 67 1017.5
20260508195705 51 249 2.0 5.0 0.00 0.00 0.00 66 1017.6
20260508195206 52 221 2.0 5.0 0.00 0.00 0.00 65 1017.5
20260508194705 52 233 2.0 5.0 0.00 0.00 0.00 65 1017.5
20260508194205 52 245 2.0 4.0 0.00 0.00 0.00 65 1017.4
20260508193705 52 238 2.0 4.0 0.00 0.00 0.00 64 1017.4
20260508193207 53 229 2.0 5.0 0.00 0.00 0.00 64 1017.3
20260508192705 53 275 2.0 5.0 0.00 0.00 0.00 63 1017.3
20260508192206 53 237 3.0 5.0 0.00 0.00 0.00 63 1017.2
20260508191706 53 0 3.0 5.0 0.00 0.00 0.00 63 1017.2
20260508191205 54 224 3.0 5.0 0.00 0.00 0.00 62 1017.2
20260508190705 54 229 3.0 5.0 0.00 0.00 0.00 62 1017.0
20260508190206 54 246 3.0 5.0 0.00 0.00 0.00 62 1017.1
20260508185705 54 246 3.0 5.0 0.00 0.00 0.00 62 1017.0
20260508185206 55 232 2.0 6.0 0.00 0.00 0.00 60 1017.0
20260508183705 55 238 3.0 6.0 0.00 0.00 0.00 59 1016.8
20260508182705 55 0 3.0 6.0 0.00 0.00 0.00 59 1016.7
20260508182206 56 0 3.0 9.0 0.00 0.00 0.00 60 1016.6
20260508180704 56 256 4.0 9.0 0.00 0.00 0.00 58 1016.6
20260508180205 56 273 4.0 11.0 0.00 0.00 0.00 57 1016.5
20260508175205 57 287 4.0 12.0 0.00 0.00 0.00 58 1016.4
20260508173705 57 253 3.0 7.0 0.00 0.00 0.00 59 1016.2
20260508172206 57 248 4.0 8.0 0.00 0.00 0.00 57 1016.1
20260508171705 56 0 4.0 8.0 0.00 0.00 0.00 58 1016.1
20260508171205 56 251 3.0 10.0 0.00 0.00 0.00 59 1016.0
20260508170706 56 231 4.0 10.0 0.00 0.00 0.00 60 1016.0
20260508170205 56 193 4.0 10.0 0.00 0.00 0.00 60 1015.9
20260508165206 57 0 4.0 10.0 0.00 0.00 0.00 60 1015.9
20260508164705 57 257 4.0 10.0 0.00 0.00 0.00 60 1015.9
20260508164205 57 248 5.0 10.0 0.00 0.00 0.00 61 1015.8
20260508163705 57 275 6.0 10.0 0.00 0.00 0.00 58 1015.8
20260508163204 57 258 6.0 10.0 0.00 0.00 0.00 58 1015.8
20260508162705 57 236 4.0 10.0 0.00 0.00 0.00 58 1015.7
20260508162205 57 244 4.0 9.0 0.00 0.00 0.00 59 1015.7
20260508161705 57 226 5.0 9.0 0.00 0.00 0.00 60 1015.6
20260508161205 57 242 5.0 13.0 0.00 0.00 0.00 58 1015.7
20260508160705 58 247 6.0 13.0 0.00 0.00 0.00 58 1015.7
20260508160206 58 248 6.0 12.0 0.00 0.00 0.00 58 1015.6
20260508155705 58 0 5.0 10.0 0.00 0.00 0.00 59 1015.5
20260508155205 58 257 5.0 11.0 0.00 0.00 0.00 58 1015.6
20260508154205 58 232 5.0 11.0 0.00 0.00 0.00 59 1015.5
20260508153705 58 251 4.0 11.0 0.00 0.00 0.00 59 1015.5
20260508153205 58 234 4.0 11.0 0.00 0.00 0.00 59 1015.4
20260508152205 58 267 6.0 13.0 0.00 0.00 0.00 57 1015.4
20260508151705 58 200 5.0 13.0 0.00 0.00 0.00 60 1015.4
20260508151205 58 257 6.0 13.0 0.00 0.00 0.00 59 1015.3
20260508150704 58 257 6.0 13.0 0.00 0.00 0.00 58 1015.5
20260508150205 58 269 5.0 11.0 0.00 0.00 0.00 59 1015.4
20260508145705 58 225 6.0 11.0 0.00 0.00 0.00 60 1015.4
20260508145206 58 236 4.0 11.0 0.00 0.00 0.00 59 1015.3
20260508144705 58 265 5.0 13.0 0.00 0.00 0.00 61 1015.3
20260508144205 58 261 6.0 13.0 0.00 0.00 0.00 59 1015.3
20260508143705 58 229 7.0 13.0 0.00 0.00 0.00 60 1015.3
20260508143205 58 257 6.0 13.0 0.00 0.00 0.00 59 1015.3
20260508142705 58 246 5.0 10.0 0.00 0.00 0.00 59 1015.3
20260508142205 58 223 5.0 10.0 0.00 0.00 0.00 60 1015.3
20260508141709 57 247 5.0 10.0 0.00 0.00 0.00 62 1015.3
20260508141204 57 257 5.0 14.0 0.00 0.00 0.00 62 1015.4
20260508140205 58 259 7.0 14.0 0.00 0.00 0.00 62 1015.3
20260508135705 58 293 7.0 13.0 0.00 0.00 0.00 60 1015.1
20260508135205 58 236 6.0 12.0 0.00 0.00 0.00 62 1015.3
20260508134704 57 244 6.0 15.0 0.00 0.00 0.00 64 1015.3
20260508134205 57 216 7.0 15.0 0.00 0.00 0.00 63 1015.1
20260508133705 57 267 7.0 15.0 0.00 0.00 0.00 63 1015.1
20260508133206 57 281 7.0 13.0 0.00 0.00 0.00 62 1015.1
20260508132706 57 219 6.0 12.0 0.00 0.00 0.00 62 1015.1
20260508132205 57 238 5.0 12.0 0.00 0.00 0.00 64 1015.1
20260508131705 56 238 6.0 12.0 0.00 0.00 0.00 63 1015.0
20260508131206 57 258 5.0 12.0 0.00 0.00 0.00 63 1015.0
20260508130705 57 248 5.0 12.0 0.00 0.00 0.00 64 1014.9
20260508130205 57 277 6.0 16.0 0.00 0.00 0.00 63 1014.9
20260508125705 57 242 7.0 16.0 0.00 0.00 0.00 62 1014.9
20260508125205 57 215 7.0 16.0 0.00 0.00 0.00 63 1014.8
20260508124705 58 206 7.0 16.0 0.00 0.00 0.00 60 1014.8
20260508124205 59 250 7.0 16.0 0.00 0.00 0.00 59 1014.7
20260508123705 59 256 6.0 14.0 0.00 0.00 0.00 60 1014.7
20260508123205 59 217 6.0 14.0 0.00 0.00 0.00 58 1014.7
20260508122706 59 235 7.0 14.0 0.00 0.00 0.00 60 1014.8
20260508122206 58 247 7.0 15.0 0.00 0.00 0.00 60 1014.7
20260508121705 58 229 8.0 15.0 0.00 0.00 0.00 60 1014.7
20260508121221 57 259 8.0 19.0 0.00 0.00 0.00 61 1014.7
20260508120706 58 217 8.0 19.0 0.00 0.00 0.00 61 1014.7
20260508120205 57 219 10.0 19.0 0.00 0.00 0.00 61 1014.7
20260508115705 57 208 9.0 15.0 0.00 0.00 0.00 60 1014.7
20260508114705 58 247 7.0 14.0 0.00 0.00 0.00 63 1014.6
20260508114205 57 267 7.0 13.0 0.00 0.00 0.00 65 1014.6
20260508113705 57 256 6.0 12.0 0.00 0.00 0.00 65 1014.6
20260508112705 57 254 6.0 14.0 0.00 0.00 0.00 66 1014.5
20260508112206 58 261 6.0 14.0 0.00 0.00 0.00 66 1014.5
20260508111705 58 244 6.0 15.0 0.00 0.00 0.00 67 1014.5
20260508111205 56 171 7.0 15.0 0.00 0.00 0.00 66 1014.5
20260508110705 56 239 7.0 15.0 0.00 0.00 0.00 66 1014.5
20260508105705 56 244 6.0 13.0 0.00 0.00 0.00 68 1014.5
20260508105205 55 244 6.0 15.0 0.00 0.00 0.00 70 1014.5
20260508104706 54 269 7.0 15.0 0.00 0.00 0.00 71 1014.5
20260508104205 54 229 7.0 15.0 0.00 0.00 0.00 70 1014.5
20260508103705 55 238 5.0 11.0 0.00 0.00 0.00 70 1014.5
20260508103205 54 200 5.0 14.0 0.00 0.00 0.00 72 1014.5
20260508102705 54 216 6.0 14.0 0.00 0.00 0.00 71 1014.4
20260508101705 54 216 5.0 13.0 0.00 0.00 0.00 73 1014.2
20260508101205 54 241 5.0 13.0 0.00 0.00 0.00 72 1014.3
20260508100705 54 252 6.0 13.0 0.00 0.00 0.00 72 1014.3
20260508100205 53 244 6.0 13.0 0.00 0.00 0.00 72 1014.2
20260508095705 53 236 6.0 11.0 0.00 0.00 0.00 72 1014.2
20260508094706 53 250 7.0 15.0 0.00 0.00 0.00 70 1014.1
20260508094205 53 277 7.0 15.0 0.00 0.00 0.00 70 1014.0
20260508093705 53 243 7.0 15.0 0.00 0.00 0.00 71 1014.0
20260508093205 54 208 6.0 13.0 0.00 0.00 0.00 71 1014.0
20260508092705 54 239 7.0 13.0 0.00 0.00 0.00 70 1014.0
20260508092207 54 214 7.0 14.0 0.00 0.00 0.00 71 1014.0
20260508091205 54 213 5.0 14.0 0.00 0.00 0.00 71 1013.9
20260508090705 53 252 5.0 10.0 0.00 0.00 0.00 76 1013.9
20260508090206 52 232 5.0 11.0 0.00 0.00 0.00 78 1013.9
20260508085705 52 260 5.0 11.0 0.00 0.00 0.00 78 1013.9
20260508085205 51 270 5.0 9.0 0.00 0.00 0.00 79 1013.8
20260508084205 51 263 5.0 11.0 0.00 0.00 0.00 79 1013.8
20260508083706 51 235 5.0 11.0 0.00 0.00 0.00 80 1013.8
20260508083205 51 257 5.0 14.0 0.00 0.00 0.00 80 1013.7
20260508082706 51 207 6.0 14.0 0.00 0.00 0.00 80 1013.7
20260508082205 51 262 5.0 10.0 0.00 0.00 0.00 80 1013.6
20260508081705 51 257 5.0 9.0 0.00 0.00 0.00 82 1013.6
20260508081205 51 224 5.0 9.0 0.00 0.00 0.00 82 1013.6
20260508080709 51 240 5.0 11.0 0.00 0.00 0.00 83 1013.5
20260508080205 50 216 5.0 11.0 0.00 0.00 0.00 83 1013.4
20260508075206 50 242 4.0 8.0 0.00 0.00 0.00 85 1013.4
20260508074705 49 254 3.0 9.0 0.00 0.00 0.00 85 1013.3
20260508074206 49 258 4.0 9.0 0.00 0.00 0.00 84 1013.2
20260508073706 49 262 4.0 10.0 0.00 0.00 0.00 84 1013.2
20260508073206 49 233 4.0 10.0 0.00 0.00 0.00 84 1013.1
20260508072205 49 238 4.0 12.0 0.00 0.00 0.00 84 1013.0
20260508071705 50 250 5.0 12.0 0.00 0.00 0.00 85 1012.9
20260508070730 50 238 5.0 11.0 0.00 0.00 0.00 85 1012.8
20260508070221 50 251 5.0 11.0 0.00 0.00 0.00 85 1012.7
20260508065706 50 220 5.0 11.0 0.00 0.00 0.00 85 1012.8
20260508064705 50 236 4.0 10.0 0.00 0.00 0.00 85 1012.6
20260508064205 50 233 4.0 10.0 0.00 0.00 0.00 85 1012.6
20260508063710 50 219 4.0 9.0 0.00 0.00 0.00 85 1012.5
20260508063205 50 229 4.0 9.0 0.00 0.00 0.00 85 1012.4
20260508062707 50 211 3.0 8.0 0.00 0.00 0.00 86 1012.4
20260508062206 50 221 4.0 11.0 0.00 0.00 0.00 86 1012.4
20260508061705 49 249 5.0 11.0 0.00 0.00 0.00 86 1012.4
20260508060705 49 242 5.0 11.0 0.00 0.00 0.00 86 1012.2
20260508060205 49 186 5.0 11.0 0.00 0.00 0.00 86 1012.2
20260508055705 49 250 5.0 11.0 0.00 0.00 0.00 86 1012.1
20260508055206 49 241 4.0 9.0 0.00 0.00 0.00 86 1012.0
20260508054705 49 235 5.0 11.0 0.00 0.00 0.00 86 1012.0
20260508054207 49 232 5.0 11.0 0.00 0.00 0.00 86 1011.9
20260508053705 49 236 5.0 11.0 0.00 0.00 0.00 86 1011.8
20260508053205 48 211 5.0 10.0 0.00 0.00 0.00 86 1011.7
20260508052706 48 198 5.0 11.0 0.00 0.00 0.00 86 1011.7
20260508052206 48 204 5.0 11.0 0.00 0.00 0.00 86 1011.6
20260508051705 48 209 5.0 11.0 0.00 0.00 0.00 86 1011.6
20260508050205 48 223 6.0 12.0 0.00 0.00 0.00 86 1011.5
20260508045705 48 215 6.0 12.0 0.00 0.00 0.00 86 1011.6
20260508045206 48 212 5.0 11.0 0.00 0.00 0.00 86 1011.5
20260508044705 48 189 5.0 12.0 0.00 0.00 0.00 86 1011.5
20260508044205 48 215 6.0 13.0 0.00 0.00 0.00 86 1011.4
20260508043705 48 225 7.0 13.0 0.00 0.00 0.00 86 1011.4
20260508043206 48 183 7.0 13.0 0.00 0.00 0.00 86 1011.3
20260508042205 48 205 7.0 14.0 0.00 0.00 0.00 85 1011.2
20260508041705 48 211 7.0 14.0 0.00 0.00 0.00 85 1011.1
20260508041205 48 175 7.0 13.0 0.00 0.00 0.00 85 1011.1
20260508040707 48 201 6.0 13.0 0.00 0.00 0.00 85 1011.1
20260508040205 48 224 5.0 12.0 0.00 0.00 0.00 85 1011.1
20260508035705 48 247 5.0 12.0 0.00 0.00 0.00 85 1011.0
20260508034705 48 204 5.0 10.0 0.00 0.00 0.00 84 1010.9
20260508034206 48 223 4.0 10.0 0.00 0.00 0.00 84 1010.9
20260508033705 48 204 4.0 9.0 0.00 0.00 0.00 84 1011.0
20260508033205 48 219 4.0 11.0 0.00 0.00 0.00 84 1011.0
20260508032205 47 248 5.0 10.0 0.00 0.00 0.00 84 1011.0
20260508031705 47 199 5.0 10.0 0.00 0.00 0.00 84 1011.0
20260508031204 47 212 4.0 9.0 0.00 0.00 0.00 83 1011.0
20260508030705 47 214 4.0 9.0 0.00 0.00 0.00 83 1011.0
20260508030205 47 233 3.0 9.0 0.00 0.00 0.00 82 1011.0
20260508025705 47 202 4.0 8.0 0.00 0.00 0.00 82 1011.0
20260508025205 47 217 4.0 12.0 0.00 0.00 0.00 82 1010.9
20260508024705 47 222 4.0 12.0 0.00 0.00 0.00 82 1011.0
20260508022706 48 200 4.0 10.0 0.00 0.00 0.00 81 1010.9
20260508022206 48 192 4.0 10.0 0.00 0.00 0.00 81 1010.9
20260508021705 48 190 4.0 10.0 0.00 0.00 0.00 81 1010.9
20260508021205 48 160 5.0 11.0 0.00 0.00 0.00 80 1010.9
20260508020705 48 224 5.0 11.0 0.00 0.00 0.00 81 1010.9
20260508020205 48 202 5.0 11.0 0.00 0.00 0.00 80 1010.8
20260508015705 48 196 5.0 12.0 0.00 0.00 0.00 80 1010.8
20260508015205 48 232 5.0 12.0 0.00 0.00 0.00 80 1010.9
20260508014705 48 205 5.0 10.0 0.00 0.00 0.00 80 1010.9
20260508014205 48 177 5.0 11.0 0.00 0.00 0.00 80 1010.9
20260508013209 48 220 7.0 16.0 0.00 0.00 0.00 80 1011.0